Weather History for EGUN - January, 2013

Change the Weather History Date:

Saturday, January 12, 2013

  Actual Average (EGSC) Record (EGSC)
Temperature  
Mean Temperature 36 °F -  
Max Temperature 40 °F 44 °F 55 °F (2007)
Min Temperature 31 °F 37 °F 24 °F (2003)
Degree Days  
Heating Degree Days 30    
Moisture  
Dew Point 30 °F    
Average Humidity 83    
Maximum Humidity 99    
Minimum Humidity 71    
Precipitation  
Precipitation 0.00 in - - ()
Sea Level Pressure  
Sea Level Pressure 29.98 in    
Wind  
Wind Speed 8 mph ()    
Max Wind Speed 15 mph    
Max Gust Speed -    
Visibility 6.2 miles    
Events      
Averages and records for this station are not official NWS values.
T = Trace of Precipitation, MM = Missing Value Source: Averaged Metar Reports

Daily Weather History Graph

Daily Weather History Graph

Search for Another Location

Airport or City:

Trip Planner

Search our weather history database for the weather conditions in past years. The results will help you decide how hot, cold, wet, or windy it might be!

Date:

Astronomy

Jan. 12, 2013 Rise Set
Actual Time 8:03 AM GMT 4:10 PM GMT
Civil Twilight 7:23 AM GMT 4:50 PM GMT
Nautical Twilight 6:40 AM GMT 5:33 PM GMT
Astronomical Twilight 5:59 AM GMT 6:14 PM GMT
Moon 7:59 AM GMT (1/12) 5:35 PM GMT (1/12)
Length of Visible Light 9h 26m
Length of Day
8h 07m
New Moon, 1% of the Moon is Illuminated
Jan 12
New Moon
Jan 18
First Quarter
Jan 27
Full
Feb 3
Last Quarter
Feb 10
New

Hourly Weather History & Observations

Time (GMT) Temp. Windchill Dew Point Humidity Pressure Visibility Wind Dir Wind Speed Gust Speed Precip Events Conditions
12:58 AM 31.5 °F 25.8 °F 31.3 °F 99% 30.01 in 6.2 mi East 5.8 mph - N/A   Overcast
1:58 AM 31.5 °F 26.8 °F 30.4 °F 96% 30.00 in 6.2 mi ESE 4.6 mph - N/A   Clear
2:58 AM 31.1 °F 26.4 °F 29.5 °F 94% 29.99 in 6.2 mi East 4.6 mph - N/A   Clear
3:58 AM 32.2 °F 25.8 °F 30.0 °F 92% 29.97 in 6.2 mi East 6.9 mph - N/A   Clear
4:58 AM 32.7 °F 25.7 °F 30.2 °F 90% 29.96 in 6.2 mi East 8.1 mph - N/A   Clear
5:58 AM 33.8 °F 25.3 °F 30.6 °F 88% 29.95 in 6.2 mi East 11.5 mph - N/A   Clear
6:58 AM 34.3 °F 27.0 °F 30.2 °F 85% 29.96 in 6.2 mi ESE 9.2 mph - N/A   Clear
7:58 AM 34.3 °F 26.5 °F 30.4 °F 85% 29.96 in 6.2 mi East 10.4 mph - N/A   Partly Cloudy
8:58 AM 34.5 °F 27.9 °F 30.7 °F 86% 29.96 in 6.2 mi East 8.1 mph - N/A   Clear
9:58 AM 36.1 °F 27.7 °F 31.5 °F 83% 29.96 in 6.2 mi East 12.7 mph - N/A   Clear
10:58 AM 36.9 °F 29.1 °F 32.0 °F 83% 29.96 in 6.2 mi East 11.5 mph - N/A   Clear
11:58 AM 39.0 °F 31.4 °F 32.2 °F 76% 29.95 in 6.2 mi East 12.7 mph - N/A   Mostly Cloudy
12:58 PM 39.9 °F 32.5 °F 32.2 °F 74% 29.94 in 6.2 mi East 12.7 mph - N/A   Mostly Cloudy
1:58 PM 40.5 °F 32.5 °F 32.5 °F 73% 29.94 in 6.2 mi East 15.0 mph - N/A   Scattered Clouds
2:58 PM 39.7 °F 32.7 °F 30.9 °F 71% 29.95 in 6.2 mi East 11.5 mph - N/A   Overcast
3:58 PM 38.3 °F 31.4 °F 31.1 °F 75% 29.97 in 6.2 mi ENE 10.4 mph - N/A   Overcast
4:58 PM 37.0 °F 29.8 °F 31.1 °F 79% 29.97 in 6.2 mi ENE 10.4 mph - N/A   Mostly Cloudy
5:58 PM 35.2 °F 28.1 °F 30.0 °F 81% 29.99 in 6.2 mi ENE 9.2 mph - N/A   Clear
6:58 PM 33.6 °F 25.6 °F 28.4 °F 81% 29.99 in 6.2 mi NE 10.4 mph - N/A   Clear
7:58 PM 33.8 °F 25.8 °F 27.1 °F 77% 30.00 in 6.2 mi ENE 10.4 mph - N/A   Clear
8:58 PM 34.2 °F 26.8 °F 27.3 °F 76% 30.02 in 6.2 mi ENE 9.2 mph - N/A   Clear
9:58 PM 33.6 °F 26.2 °F 27.3 °F 78% 30.03 in 6.2 mi ENE 9.2 mph - N/A   Clear
10:58 PM 33.3 °F 26.4 °F 27.1 °F 78% 30.03 in 6.2 mi ENE 8.1 mph - N/A   Clear
11:58 PM 31.1 °F 24.5 °F 26.8 °F 84% 30.03 in 6.2 mi ENE 6.9 mph - N/A   Clear